Chattahoochee River Whitewater Weather Center

Moon Phase Calendar



Online Cameras

 


      

Current Conditions in Phenix City
5/10/2021 12:58:03 AM

72°F
Feels Like 72
Clear
Humidity
64%
Pressure
29.94"
Wind
10.4 mph (S)
Dew Point
59°F
UV Index
0/10 (Low)
Visibility
6 mi

Hourly Forecast

Date & Time Mon, May 10
12:00 AM
Mon, May 10
1:00 AM
Mon, May 10
2:00 AM
Mon, May 10
3:00 AM
Mon, May 10
4:00 AM
Mon, May 10
5:00 AM
Mon, May 10
6:00 AM
Mon, May 10
7:00 AM
Mon, May 10
8:00 AM
Mon, May 10
9:00 AM
Mon, May 10
10:00 AM
Mon, May 10
11:00 AM
Mon, May 10
12:00 PM
Mon, May 10
1:00 PM
Mon, May 10
2:00 PM
Mon, May 10
3:00 PM
Mon, May 10
4:00 PM
Mon, May 10
5:00 PM
Mon, May 10
6:00 PM
Mon, May 10
7:00 PM
Mon, May 10
8:00 PM
Mon, May 10
9:00 PM
Mon, May 10
10:00 PM
Mon, May 10
11:00 PM
Tue, May 11
12:00 AM
Tue, May 11
1:00 AM
Tue, May 11
2:00 AM
Tue, May 11
3:00 AM
Tue, May 11
4:00 AM
Tue, May 11
5:00 AM
Tue, May 11
6:00 AM
Tue, May 11
7:00 AM
Tue, May 11
8:00 AM
Tue, May 11
9:00 AM
Tue, May 11
10:00 AM
Tue, May 11
11:00 AM
Tue, May 11
12:00 PM
Tue, May 11
1:00 PM
Tue, May 11
2:00 PM
Tue, May 11
3:00 PM
Tue, May 11
4:00 PM
Tue, May 11
5:00 PM
Tue, May 11
6:00 PM
Tue, May 11
7:00 PM
Tue, May 11
8:00 PM
Tue, May 11
9:00 PM
Tue, May 11
10:00 PM
Tue, May 11
11:00 PM
Condition
Clouds

Clear

Clouds

Clouds

Clouds

Rain

Clouds

Clouds

Rain

Rain

Rain

Rain

Rain

Rain

Rain

Rain

Rain

Rain

Clouds

Clouds

Clouds

Clear

Clouds

Clouds

Clouds

Clouds

Clouds

Clouds

Clouds

Clouds

Clouds

Clouds

Clouds

Clouds

Clouds

Clouds

Clouds

Clouds

Clouds

Clouds

Clouds

Clouds

Clouds

Clouds

Rain

Rain

Rain

Rain
Temperature 72°F72°F71°F70°F69°F67°F65°F65°F66°F69°F71°F71°F73°F75°F72°F71°F70°F72°F74°F73°F71°F67°F66°F66°F65°F64°F65°F65°F65°F64°F63°F63°F66°F70°F71°F75°F76°F79°F83°F84°F83°F84°F83°F78°F75°F72°F70°F68°F
Feels Like 72°F72°F71°F70°F69°F67°F65°F66°F67°F69°F72°F72°F74°F76°F73°F72°F71°F73°F75°F73°F71°F68°F67°F66°F65°F64°F65°F66°F66°F65°F64°F64°F67°F70°F72°F75°F77°F79°F84°F85°F84°F86°F84°F79°F76°F73°F71°F69°F
Cloudiness 17%1%18%41%60%80%100%100%100%100%100%100%100%100%100%100%100%100%89%88%74%2%13%13%14%17%26%84%82%80%68%75%79%100%100%100%100%100%100%65%82%88%90%92%94%100%100%100%
Visibility 6 mi6 mi6 mi6 mi6 mi6 mi6 mi6 mi6 mi6 mi6 mi6 mi6 mi6 mi6 mi6 mi6 mi6 mi6 mi6 mi6 mi6 mi6 mi6 mi6 mi6 mi6 mi6 mi6 mi6 mi6 mi6 mi6 mi6 mi6 mi6 mi6 mi6 mi6 mi6 mi6 mi6 mi6 mi6 mi6 mi6 mi6 mi3 mi
Precipitation 0%0%0%19%31%35%35%35%35%60%68%77%81%85%89%100%100%100%80%72%72%18%4%0%0%0%0%0%0%0%0%0%0%0%0%0%0%0%0%0%0%35%50%63%84%88%100%100%
Humidity 66%64%68%74%79%88%94%95%93%91%87%87%86%79%88%92%92%84%72%74%80%89%91%92%95%96%95%93%94%96%97%98%93%86%82%74%69%61%54%52%53%51%53%67%74%82%92%94%
Dew Point 60°F59°F60°F61°F62°F63°F63°F63°F64°F65°F67°F67°F68°F67°F68°F68°F68°F67°F64°F64°F64°F63°F63°F63°F63°F62°F63°F63°F63°F62°F62°F62°F64°F65°F66°F65°F65°F65°F64°F64°F64°F64°F64°F66°F66°F66°F67°F67°F
Pressure 29.94"29.94"29.94"29.94"29.97"29.97"29.97"29.97"30"30"30"30"30"30"30"30"30"29.97"29.97"30"30"30"30.03"30.03"30.03"30.03"30"30"30"30"30.03"30.03"30.06"30.09"30.09"30.09"30.09"30.06"30.03"30.03"30"30"30"30"30"30.03"30.03"30.06"
Wind Speed 9.6 mph8.1 mph7.7 mph4.4 mph3.5 mph3 mph2 mph4.6 mph6 mph7.1 mph9.6 mph7.5 mph7.5 mph10.6 mph9.6 mph10.8 mph10.1 mph9 mph10.7 mph7.7 mph5.9 mph4.6 mph4.2 mph3.6 mph3.5 mph3 mph3 mph2.7 mph2.4 mph2 mph1.4 mph0.7 mph1.4 mph2.6 mph2.5 mph4.1 mph4.5 mph4.1 mph4.7 mph5.8 mph5.2 mph6.2 mph7.9 mph6.7 mph7.5 mph3.4 mph3.2 mph1.5 mph
Wind
Direction
212°
SSW
218°
SW
215°
SW
232°
SW
249°
WSW
264°
W
239°
WSW
186°
S
193°
SSW
195°
SSW
226°
SW
242°
WSW
231°
SW
230°
SW
230°
SW
232°
SW
226°
SW
223°
SW
229°
SW
223°
SW
219°
SW
195°
SSW
193°
SSW
216°
SW
236°
SW
253°
WSW
258°
WSW
241°
WSW
252°
WSW
276°
W
288°
WNW
249°
WSW
225°
SW
308°
NW
307°
NW
307°
NW
309°
NW
300°
WNW
279°
W
281°
W
313°
NW
331°
NNW
343°
NNW
353°
N
333°
NNW
283°
WNW
334°
NNW
73°
ENE

Daily Forecast

Date High Low Precip. Humidity
Today
May 10

Rain
75 °F
65 °F
100%
79%
Tuesday
May 11

Rain
84 °F
63 °F
100%
61%
Wednesday
May 12

Rain
66 °F
53 °F
100%
94%
Thursday
May 13

Rain
62 °F
52 °F
46%
76%
Friday
May 14

Clear
75 °F
47 °F
0%
37%
Saturday
May 15

Clear
80 °F
53 °F
0%
35%
Sunday
May 16

Clouds
82 °F
59 °F
0%
38%
Monday
May 17

Clear
86 °F
61 °F
0%
35%
Tuesday
May 18

Clouds
87 °F
65 °F
0%
40%
Wednesday
May 19

Clouds
83 °F
66 °F
0%
49%
Thursday
May 20

Rain
89 °F
67 °F
64%
38%
Friday
May 21

Rain
78 °F
66 °F
85%
65%
Saturday
May 22

Clear
80 °F
56 °F
0%
36%
Sunday
May 23

Clear
85 °F
56 °F
0%
32%
Monday
May 24

Clear
88 °F
61 °F
0%
27%
Tuesday
May 25

Clear
88 °F
62 °F
0%
20%

Temperature 8-14 Day Outlook



Precipitation 8-14 Day Outlook




Quick Links
Chattahoochee River Whitewater News
Chattahoochee River Whitewater Photos
Chattahoochee River Whitewater Videos




About Us
Contact Us
Site Map
Search Site
Advertise With Us
   
www.ChattahoocheeRiverWhitewater.com
THE CHATTAHOOCHEE RIVER WHITEWATER WEBSITE

Copyright 2021, Discover Rivers
Privacy    |    Legal